Location: Banff
(51.1667°N, 115.5667°W)
Time: 09:35:18
(UTC+00:00)

Envisat - Pass Details

Date: 03 December 2022
Orbit: 763 x 765 km, 98.2° (Epoch: 28 January)

Event Time Altitude Azimuth Distance (km) Brightness Sun altitude
Rises 00:37:45 0° 221° (SW) 3,223 7.6 -9.0°
Reaches altitude 10° 00:41:31 10° 250° (WSW) 2,304 7.1 -9.6°
Maximum altitude 00:43:40 13° 276° (W) 2,131 6.3 -9.9°
Drops below altitude 10° 00:45:50 10° 301° (WNW) 2,312 6.0 -10.2°
Sets 00:49:38 0° 330° (NNW) 3,246 6.4 -10.7°
